LUSAT (LO-19) (20442 NORAD) Tracking and Keplerian Element Data

This shows tracking and keplerian element data for the satellite.

Feedback or suggestion? Click here.




ElementValue
Catalog20442
NameLUSAT (LO-19)
Epoch Orbit71550
Epoch Day324.8452453
Epoch Year2022
RAAN292.2613
Inclination98.8165
Eccentricity0.0012806
Argument of Perigee71.4253
Mean Anonmoly288.832
Mean Motion14.33114729
Decay Rate1.03E-06
L11 20442U 90005G 22324.84524530 .00000103 00000+0 54420-4 0 9992
L22 20442 98.8165 292.2613 0012806 71.4253 288.8320 14.33114729715509



Live tracking and technical data element details for LUSAT (LO-19) (NORAD 20442). LUSAT (LO-19) can be tracked NOW for your location showing map with azimuth and elevation plus other details from your city location.







IsCatalogInMostPopularTable: catalog: 20442, numindb: 325
Update: records affected: 1



GetName: 20442 LUSAT (LO-19)

Hit Count: updated at: Mon, 28 Nov 2022 04:35:12 GMT